EW8241 Weather Reports


Display with metric or nautical units.
time (UTC)temp
F
wind
direction
speed
MPH
gust
MPH
rain 1hr
in
rain 24hr
in
rain mn
in
humidity
%
barometer
mb
20260508090517 66 0.0 0.0 0.00 0.00 0.00 57 1012.1
20260508085517 66 0.0 0.0 0.00 0.00 0.00 56 1012.0
20260508084517 66 0.0 0.0 0.00 0.00 0.00 57 1011.9
20260508083517 65 0.0 0.0 0.00 0.00 0.00 58 1011.8
20260508082517 65 0.0 0.0 0.00 0.00 0.00 59 1011.7
20260508081517 65 0.0 0.0 0.00 0.00 0.00 60 1011.7
20260508080517 63 0.0 0.0 0.00 0.00 0.00 62 1011.6
20260508075517 64 0.0 0.0 0.00 0.00 0.00 60 1011.6
20260508074517 64 0.0 0.0 0.00 0.00 0.00 61 1011.9
20260508073517 64 0.0 0.0 0.00 0.00 0.00 61 1011.8
20260508072517 64 0.0 0.0 0.00 0.00 0.00 62 1011.8
20260508071517 63 0.0 0.0 0.00 0.00 0.00 65 1011.9
20260508070517 62 0.0 0.0 0.00 0.00 0.00 67 1011.6
20260508065517 58 0.0 0.0 0.00 0.00 0.00 71 1011.5
20260508064516 57 0.0 5.0 0.00 0.00 0.00 72 1011.1
20260508063517 57 0.0 2.0 0.00 0.00 0.00 73 1010.9
20260508062517 56 0.0 0.0 0.00 0.00 0.00 74 1010.7
20260508061517 56 0.0 0.0 0.00 0.00 0.00 74 1010.6
20260508060517 56 0.0 0.0 0.00 0.00 0.00 76 1010.9
20260508055516 55 0.0 0.0 0.00 0.00 0.00 76 1010.8
20260508054516 56 0.0 0.0 0.00 0.00 0.00 75 1010.8
20260508053536 56 0.0 0.0 0.00 0.00 0.00 75 1010.7
20260508052516 55 0.0 0.0 0.00 0.00 0.00 76 1010.7
20260508051517 56 0.0 0.0 0.00 0.00 0.00 75 1010.6
20260508050516 56 0.0 0.0 0.00 0.00 0.00 75 1010.8
20260508045516 56 0.0 0.0 0.00 0.00 0.00 75 1010.8
20260508044536 56 0.0 0.0 0.00 0.00 0.00 75 1010.6
20260508043517 56 0.0 0.0 0.00 0.00 0.00 75 1011.3
20260508042516 56 0.0 0.0 0.00 0.00 0.00 75 1011.2
20260508041516 56 0.0 0.0 0.00 0.00 0.00 75 1011.1
20260508040516 56 0.0 0.0 0.00 0.00 0.00 75 1010.9
20260508035516 55 0.0 0.0 0.00 0.00 0.00 75 1011.1
20260508034517 56 0.0 0.0 0.00 0.00 0.00 75 1010.9
20260508033517 56 0.0 0.0 0.00 0.00 0.00 74 1010.9
20260508032516 56 0.0 0.0 0.00 0.00 0.00 73 1010.7
20260508031517 56 0.0 0.0 0.00 0.00 0.00 73 1010.8
20260508030517 56 0.0 0.0 0.00 0.00 0.00 72 1010.6
20260508025516 56 0.0 0.0 0.00 0.00 0.00 72 1010.7
20260508024516 57 0.0 0.0 0.00 0.00 0.00 71 1010.9
20260508023517 57 0.0 0.0 0.00 0.00 0.00 72 1010.5
20260508022517 57 0.0 0.0 0.00 0.00 0.00 71 1010.5
20260508021517 58 0.0 0.0 0.00 0.00 0.00 70 1010.5
20260508020516 57 0.0 0.0 0.00 0.00 0.00 71 1010.0
20260508015517 57 0.0 0.0 0.00 0.00 0.00 73 1010.0
20260508014516 57 0.0 0.0 0.00 0.00 0.00 71 1010.0
20260508013516 57 0.0 0.0 0.00 0.00 0.00 71 1010.5
20260508012516 58 0.0 0.0 0.00 0.00 0.00 70 1010.5
20260508011516 58 0.0 0.0 0.00 0.00 0.00 69 1011.0
20260508010516 58 0.0 0.0 0.00 0.00 0.00 69 1011.4
20260508005536 59 0.0 0.0 0.00 0.00 0.00 68 1011.5
20260508004516 59 0.0 0.0 0.00 0.00 0.00 67 1011.7
20260508003516 59 0.0 0.0 0.00 0.00 0.00 65 1011.8
20260508002516 59 0.0 0.0 0.00 0.00 0.00 63 1012.0
20260508001516 59 0.0 0.0 0.00 0.00 0.00 65 1012.0
20260508000516 60 0.0 0.0 0.00 0.00 0.00 66 1012.0
20260507235516 60 0.0 0.0 0.00 0.00 0.00 65 1011.9
20260507234516 60 0.0 0.0 0.00 0.00 0.00 64 1012.0
20260507233516 60 0.0 0.0 0.00 0.00 0.00 64 1011.8
20260507232516 59 0.0 0.0 0.00 0.00 0.00 65 1011.9
20260507231516 59 0.0 0.0 0.00 0.00 0.00 66 1011.9
20260507230536 60 0.0 0.0 0.00 0.00 0.00 64 1012.0
20260507225516 60 0.0 0.0 0.00 0.00 0.00 64 1011.9
20260507224536 60 0.0 0.0 0.00 0.00 0.00 64 1012.0
20260507223516 61 0.0 0.0 0.00 0.00 0.00 63 1012.2
20260507222516 61 0.0 0.0 0.00 0.00 0.00 62 1012.2
20260507221516 61 0.0 0.0 0.00 0.00 0.00 61 1012.4
20260507220516 61 0.0 0.0 0.00 0.00 0.00 61 1012.4
20260507215516 62 0.0 0.0 0.00 0.00 0.00 60 1012.3
20260507214516 62 0.0 0.0 0.00 0.00 0.00 57 1012.5
20260507213516 62 0.0 0.0 0.00 0.00 0.00 56 1012.3
20260507212516 62 0.0 0.0 0.00 0.00 0.00 56 1012.3
20260507211536 63 0.0 0.0 0.00 0.00 0.00 57 1012.2
20260507210536 63 0.0 2.0 0.00 0.00 0.00 56 1012.0
20260507205516 63 0.0 0.0 0.00 0.00 0.00 56 1011.9
20260507204536 63 0.0 0.0 0.00 0.00 0.00 57 1011.7
20260507203516 63 0.0 0.0 0.00 0.00 0.00 56 1011.3
20260507202516 63 0.0 0.0 0.00 0.00 0.00 57 1011.1
20260507201516 63 0.0 0.0 0.00 0.00 0.00 58 1011.1
20260507200516 63 0.0 8.0 0.00 0.00 0.00 57 1010.9
20260507195536 62 0.0 0.0 0.00 0.00 0.00 59 1010.6
20260507194516 61 0.0 0.0 0.00 0.00 0.00 61 1010.4
20260507193536 62 0.0 0.0 0.00 0.00 0.00 60 1010.3
20260507192516 62 0.0 0.0 0.00 0.00 0.00 58 1010.0
20260507191516 62 0.0 1.0 0.00 0.00 0.00 57 1009.9
20260507190516 62 0.0 0.0 0.00 0.00 0.00 56 1009.8
20260507185516 62 0.0 0.0 0.00 0.00 0.00 57 1009.8
20260507184516 62 0.0 0.0 0.00 0.00 0.00 58 1009.6
20260507183515 63 0.0 0.0 0.00 0.00 0.00 55 1009.3
20260507182515 64 0.0 0.0 0.00 0.00 0.00 53 1009.2
20260507181516 65 0.0 0.0 0.00 0.00 0.00 51 1009.3
20260507180516 66 0.0 0.0 0.00 0.00 0.00 50 1009.0
20260507175516 66 0.0 0.0 0.00 0.00 0.00 51 1008.9
20260507174516 65 0.0 0.0 0.00 0.00 0.00 53 1008.7
20260507173516 64 0.0 0.0 0.00 0.00 0.00 55 1008.6
20260507172536 63 0.0 0.0 0.00 0.00 0.00 59 1008.7
20260507171515 62 0.0 0.0 0.00 0.00 0.00 61 1008.7
20260507170515 61 0.0 1.0 0.00 0.00 0.00 67 1008.7
20260507165516 61 0.0 1.0 0.00 0.00 0.00 63 1008.5
20260507164515 64 0.0 4.0 0.00 0.00 0.00 57 1008.5
20260507163516 66 0.0 5.0 0.00 0.00 0.00 50 1008.4
20260507162535 69 0.0 0.0 0.00 0.00 0.00 46 1008.7
20260507161515 69 0.0 0.0 0.00 0.00 0.00 46 1008.5
20260507160516 70 0.0 0.0 0.00 0.00 0.00 46 1008.5
20260507155535 69 0.0 1.0 0.00 0.00 0.00 48 1008.4
20260507154516 68 0.0 1.0 0.00 0.00 0.00 48 1008.4
20260507153536 68 0.0 0.0 0.00 0.00 0.00 50 1008.5
20260507152516 67 0.0 0.0 0.00 0.00 0.00 52 1008.5
20260507151516 67 0.0 0.0 0.00 0.00 0.00 54 1008.5
20260507150536 67 0.0 0.0 0.00 0.00 0.00 53 1008.9
20260507145516 68 0.0 0.0 0.00 0.00 0.00 48 1009.0
20260507144515 68 0.0 0.0 0.00 0.00 0.00 46 1008.9
20260507143515 67 0.0 0.0 0.00 0.00 0.00 48 1009.1
20260507142515 66 0.0 5.0 0.00 0.00 0.00 51 1009.2
20260507141516 67 0.0 5.0 0.00 0.00 0.00 46 1009.5
20260507140516 67 0.0 1.0 0.00 0.00 0.00 45 1009.5
20260507135516 65 0.0 2.0 0.00 0.00 0.00 45 1009.6
20260507134515 63 0.0 6.0 0.00 0.00 0.00 48 1009.7
20260507133515 62 203 1.0 9.0 0.00 0.00 0.00 48 1009.8
20260507132515 62 113 4.0 16.0 0.00 0.00 0.00 47 1009.7
20260507131516 67 0.0 1.0 0.00 0.00 0.00 45 1009.8
20260507130515 69 0.0 0.0 0.00 0.00 0.00 45 1009.9
20260507125515 70 0.0 0.0 0.00 0.00 0.00 41 1009.8
20260507124556 71 0.0 0.0 0.00 0.00 0.00 40 1010.0
20260507123515 70 0.0 0.0 0.00 0.00 0.00 41 1010.1
20260507122515 70 0.0 0.0 0.00 0.00 0.00 42 1010.2
20260507121516 70 0.0 0.0 0.00 0.00 0.00 42 1010.3
20260507120515 69 0.0 0.0 0.00 0.00 0.00 43 1010.5
20260507115515 68 0.0 0.0 0.00 0.00 0.00 45 1010.5
20260507114556 67 0.0 0.0 0.00 0.00 0.00 48 1010.7
20260507113536 67 0.0 0.0 0.00 0.00 0.00 46 1010.6
20260507112517 68 0.0 0.0 0.00 0.00 0.00 46 1010.8
20260507111537 67 0.0 0.0 0.00 0.00 0.00 48 1010.9
20260507110517 68 0.0 0.0 0.00 0.00 0.00 47 1011.1
20260507105517 67 0.0 0.0 0.00 0.00 0.00 47 1011.0
20260507104538 66 0.0 0.0 0.00 0.00 0.00 50 1011.0
20260507103537 67 0.0 0.0 0.00 0.00 0.00 48 1011.2
20260507102537 69 0.0 0.0 0.00 0.00 0.00 48 1011.3
20260507101517 67 0.0 0.0 0.00 0.00 0.00 50 1011.3
20260507100517 66 0.0 1.0 0.00 0.00 0.00 51 1011.3
20260507095517 67 0.0 0.0 0.00 0.00 0.00 50 1011.4
20260507094517 64 0.0 0.0 0.00 0.00 0.00 53 1011.3
20260507093517 64 0.0 1.0 0.00 0.00 0.00 52 1011.1
20260507092517 64 0.0 0.0 0.00 0.00 0.00 53 1011.0
20260507091517 64 0.0 0.0 0.00 0.00 0.00 52 1011.0